sat.trackr.live / text

‹ back to catalog

SHIYAN-30 01

NORAD 65851 · 2025-222A

PAYLOAD ACTIVE UNKNOWN

§ Identity

Operator
Country
PRC
Launch date
2025-09-29
Launch site
XICLF
Launch vehicle
Mass (kg)
RCS (m²)

External: N2YO · Heavens-Above · Gunter

§ Orbital elements

Epoch: 2026-09-20T20:35:26.878272Z

Period
96.52 min
Inclination
34.9886°
Eccentricity
0.0002407
Mean motion
14.91972630 rev/d
Perigee alt
590.1 km
Apogee alt
593.5 km
Semi-major
6,969.9 km
B*
1.1104e-4
RAAN
48.5872°
Arg perigee
242.1762°
Mean anomaly
117.8699°
Rev number
5,333

§ Raw data

SHIYAN-30 011 65851U 25222A   26263.85794998  .00001119  00000+0  11104-3 0  99972 65851  34.9886  48.5872 0002407 242.1762 117.8699 14.91972630 53333

JSON: /api/v1/satellites/65851 · /tle

For live sub-satellite position, see the globe view (requires WebGL).

§ Visibility from observer

Set your observer location to see the next 7 days of passes ≥ 10°. The values pass through the URL so the page stays shareable.

No JS? Fill the form by hand. The geolocation button needs JavaScript.